When you browse on this site, cookies collect data to enhance your experience and personalize the content and advertising you see.
Visit our Privacy Policy to learn more. By continuing to use the site, you agree to this use of cookies and data.
  • In Hungary
  • List of Countries
  • For 7 days
  • Water Temperature
  • Satellite Maps
  • Weather Map
  • News
  • Weather Widgets
  • user-avatar
    Login

    Hourly Weather Emmendingen

    Today, 24 February, Sunday

    Time Temperature Precipitation Wind Pressure Humidity
    00:00 +3°C° 0 mm 2 mps 756 mmHg 46%
    01:00 +3°C° 0 mm 2 mps 756 mmHg 45%
    02:00 +2°C° 0 mm 2 mps 756 mmHg 44%
    03:00 +2°C° 0 mm 2 mps 755 mmHg 43%
    04:00 +2°C° 0 mm 2 mps 755 mmHg 43%
    05:00 +2°C° 0 mm 2 mps 756 mmHg 42%
    06:00 +2°C° 0 mm 2 mps 756 mmHg 42%
    07:00 +3°C° 0 mm 1 mps 756 mmHg 42%
    08:00 +5°C° 0 mm 1 mps 756 mmHg 39%
    09:00 +6°C° 0 mm 1 mps 756 mmHg 36%
    10:00 +8°C° 0 mm 1 mps 757 mmHg 33%
    11:00 +10°C° 0 mm 1 mps 757 mmHg 31%
    12:00 +12°C° 0 mm 1 mps 757 mmHg 30%
    13:00 +14°C° 0 mm 1 mps 757 mmHg 29%
    14:00 +14°C° 0 mm 2 mps 756 mmHg 32%
    15:00 +14°C° 0 mm 2 mps 756 mmHg 36%
    16:00 +14°C° 0 mm 2 mps 756 mmHg 39%
    17:00 +12°C° 0 mm 2 mps 757 mmHg 46%
    18:00 +9°C° 0 mm 2 mps 757 mmHg 53%
    19:00 +7°C° 0 mm 2 mps 757 mmHg 60%
    20:00 +6°C° 0 mm 2 mps 757 mmHg 59%
    21:00 +6°C° 0 mm 2 mps 757 mmHg 59%
    22:00 +5°C° 0 mm 2 mps 757 mmHg 59%
    23:00 +5°C° 0 mm 2 mps 757 mmHg 58%

    Tomorrow, 25 February, Monday

    Time Temperature Precipitation Wind Pressure Humidity
    00:00 +5°C° 0 mm 2 mps 757 mmHg 57%
    01:00 +4°C° 0 mm 2 mps 757 mmHg 57%
    02:00 +4°C° 0 mm 2 mps 757 mmHg 58%
    03:00 +4°C° 0 mm 2 mps 757 mmHg 59%
    04:00 +4°C° 0 mm 2 mps 756 mmHg 60%
    05:00 +4°C° 0 mm 2 mps 756 mmHg 61%
    06:00 +4°C° 0 mm 2 mps 757 mmHg 62%
    07:00 +4°C° 0 mm 2 mps 757 mmHg 64%
    08:00 +6°C° 0 mm 2 mps 757 mmHg 60%
    09:00 +7°C° 0 mm 2 mps 757 mmHg 57%
    10:00 +9°C° 0 mm 2 mps 757 mmHg 54%
    11:00 +12°C° 0 mm 2 mps 757 mmHg 51%
    12:00 +14°C° 0 mm 2 mps 757 mmHg 49%
    13:00 +16°C° 0 mm 3 mps 757 mmHg 47%
    14:00 +16°C° 0 mm 3 mps 756 mmHg 48%
    15:00 +16°C° 0 mm 3 mps 756 mmHg 50%
    16:00 +16°C° 0 mm 3 mps 756 mmHg 51%
    17:00 +13°C° 0 mm 3 mps 756 mmHg 59%
    18:00 +12°C° 0 mm 2 mps 756 mmHg 66%
    19:00 +9°C° 0 mm 2 mps 756 mmHg 74%
    20:00 +8°C° 0 mm 2 mps 756 mmHg 75%
    21:00 +8°C° 0 mm 2 mps 756 mmHg 76%
    22:00 +7°C° 0 mm 2 mps 756 mmHg 77%
    23:00 +7°C° 0 mm 2 mps 757 mmHg 77%

    Day after tomorrow, 26 February, Tuesday

    Time Temperature Precipitation Wind Pressure Humidity
    00:00 +6°C° 0 mm 2 mps 757 mmHg 78%
    01:00 +7°C° 0 mm 1 mps 757 mmHg 79%
    02:00 +7°C° 0 mm 1 mps 756 mmHg 79%
    03:00 +6°C° 0 mm 1 mps 756 mmHg 79%
    04:00 +6°C° 0 mm 1 mps 756 mmHg 79%
    05:00 +6°C° 0 mm 1 mps 756 mmHg 79%
    06:00 +6°C° 0 mm 1 mps 756 mmHg 78%
    07:00 +6°C° 0 mm 1 mps 756 mmHg 78%
    08:00 +8°C° 0 mm 1 mps 756 mmHg 71%
    09:00 +10°C° 0 mm 1 mps 756 mmHg 64%
    10:00 +12°C° 0 mm 1 mps 756 mmHg 57%
    11:00 +14°C° 0 mm 1 mps 756 mmHg 51%
    12:00 +15°C° 0 mm 1 mps 756 mmHg 46%
    13:00 +18°C° 0 mm 1 mps 756 mmHg 40%
    14:00 +18°C° 0 mm 1 mps 755 mmHg 41%
    15:00 +19°C° 0 mm 1 mps 755 mmHg 42%
    16:00 +19°C° 0 mm 1 mps 755 mmHg 43%
    17:00 +16°C° 0 mm 1 mps 755 mmHg 50%
    18:00 +13°C° 0 mm 1 mps 755 mmHg 57%
    19:00 +11°C° 0 mm 1 mps 755 mmHg 65%
    20:00 +11°C° 0 mm 1 mps 755 mmHg 66%
    21:00 +10°C° 0 mm 1 mps 755 mmHg 68%
    22:00 +9°C° 0 mm 1 mps 755 mmHg 70%
    23:00 +9°C° 0 mm 1 mps 754 mmHg 69%

    27 February, Wednesday

    Time Temperature Precipitation Wind Pressure Humidity
    00:00 +9°C° 0 mm 1 mps 754 mmHg 67%
    01:00 +8°C° 0 mm 1 mps 754 mmHg 66%
    02:00 +8°C° 0 mm 1 mps 754 mmHg 64%
    03:00 +8°C° 0 mm 1 mps 753 mmHg 62%
    04:00 +7°C° 0 mm 1 mps 753 mmHg 60%
    05:00 +7°C° 0 mm 1 mps 753 mmHg 59%
    06:00 +7°C° 0 mm 1 mps 753 mmHg 57%
    07:00 +7°C° 0 mm 1 mps 752 mmHg 56%
    08:00 +9°C° 0 mm 1 mps 752 mmHg 52%
    09:00 +11°C° 0 mm 1 mps 752 mmHg 48%
    10:00 +13°C° 0 mm 1 mps 752 mmHg 44%
    11:00 +14°C° 0 mm 0 mps 752 mmHg 39%
    12:00 +15°C° 0 mm 0 mps 751 mmHg 35%
    13:00 +17°C° 0 mm 0 mps 751 mmHg 31%
    14:00 +19°C° 0 mm 1 mps 751 mmHg 33%
    15:00 +19°C° 0 mm 1 mps 750 mmHg 35%
    16:00 +19°C° 0 mm 1 mps 750 mmHg 36%
    17:00 +16°C° 0 mm 1 mps 750 mmHg 42%
    18:00 +14°C° 0 mm 1 mps 750 mmHg 48%
    19:00 +12°C° 0 mm 1 mps 750 mmHg 54%
    20:00 +11°C° 0 mm 1 mps 750 mmHg 56%
    21:00 +11°C° 0 mm 1 mps 749 mmHg 57%
    22:00 +10°C° 0 mm 1 mps 749 mmHg 59%
    23:00 +10°C° 0 mm 1 mps 749 mmHg 59%

    28 February, Thursday

    Time Temperature Precipitation Wind Pressure Humidity
    00:00 +10°C° 0 mm 1 mps 749 mmHg 60%
    01:00 +10°C° 0 mm 1 mps 749 mmHg 60%
    02:00 +9°C° 0 mm 1 mps 749 mmHg 61%
    03:00 +9°C° 0 mm 1 mps 749 mmHg 62%
    04:00 +9°C° 0 mm 1 mps 749 mmHg 63%
    05:00 +8°C° 0 mm 1 mps 749 mmHg 65%
    06:00 +8°C° 0 mm 1 mps 749 mmHg 66%
    07:00 +8°C° 0 mm 1 mps 749 mmHg 68%
    08:00 +10°C° 0 mm 1 mps 749 mmHg 64%
    09:00 +12°C° 0 mm 1 mps 748 mmHg 59%
    10:00 +14°C° 0 mm 1 mps 748 mmHg 55%
    11:00 +15°C° 0 mm 1 mps 748 mmHg 50%
    12:00 +18°C° 0 mm 1 mps 748 mmHg 45%
    13:00 +19°C° 0 mm 1 mps 748 mmHg 40%
    14:00 +19°C° 0 mm 1 mps 747 mmHg 41%
    15:00 +19°C° 0 mm 1 mps 747 mmHg 42%
    16:00 +19°C° 0 mm 1 mps 747 mmHg 42%
    17:00 +15°C° 0 mm 0 mps 747 mmHg 49%
    18:00 +13°C° 0 mm 0 mps 747 mmHg 55%
    19:00 +11°C° 0 mm 0 mps 747 mmHg 62%
    20:00 +10°C° 0 mm 0 mps 748 mmHg 66%
    21:00 +11°C° 0 mm 1 mps 748 mmHg 71%
    22:00 +10°C° 0 mm 1 mps 748 mmHg 75%
    23:00 +9°C° 0 mm 1 mps 748 mmHg 78%

    1 March, Friday

    Time Temperature Precipitation Wind Pressure Humidity
    00:00 +9°C° 0 mm 1 mps 748 mmHg 81%
    01:00 +9°C° 0 mm 1 mps 748 mmHg 84%
    02:00 +8°C° 0 mm 1 mps 747 mmHg 86%
    03:00 +8°C° 0 mm 1 mps 747 mmHg 88%
    04:00 +8°C° 0 mm 1 mps 747 mmHg 89%
    05:00 +8°C° 0 mm 1 mps 747 mmHg 90%
    06:00 +8°C° 0 mm 1 mps 747 mmHg 90%
    07:00 +8°C° 0 mm 1 mps 747 mmHg 91%
    08:00 +9°C° 0 mm 1 mps 747 mmHg 86%
    09:00 +10°C° 0 mm 1 mps 747 mmHg 80%
    10:00 +12°C° 0 mm 1 mps 747 mmHg 75%
    11:00 +13°C° 0 mm 1 mps 747 mmHg 73%
    12:00 +13°C° 0 mm 2 mps 746 mmHg 71%
    13:00 +14°C° 0 mm 2 mps 746 mmHg 69%
    14:00 +14°C° 0 mm 2 mps 746 mmHg 71%
    15:00 +13°C° 0 mm 3 mps 746 mmHg 73%
    16:00 +13°C° 0 mm 3 mps 745 mmHg 74%
    17:00 +13°C° 0 mm 2 mps 745 mmHg 79%
    18:00 +10°C° 0 mm 2 mps 746 mmHg 84%
    19:00 +9°C° 0 mm 2 mps 746 mmHg 88%
    20:00 +9°C° 0 mm 2 mps 746 mmHg 89%
    21:00 +8°C° 0 mm 2 mps 746 mmHg 90%
    22:00 +8°C° 0 mm 1 mps 746 mmHg 91%
    23:00 +8°C° 0 mm 1 mps 746 mmHg 91%
    Show more